Wind_Speed
58 58 58 59 60 60 61 61 61 62 62 63 64 65 67 68 69 69 69 69 68 68 68 68 68 68 68 68 68 68 68 67 66 66 69 72 70 70 73 75 76 76 74 73 72 71 71 70 69 69 68 67 66 65 64 62 61 60 60 61 61 61 59 57 56 55 54 53 52 52 53 53 54 55 55 55 56 56 57 57 56 55 55 54 53 53 53 54
58 59 59 60 61 61 61 61 62 62 62 62 63 64 65 66 67 68 69 70 70 70 69 69 69 68 68 67 68 68 67 67 66 68 72 70 66 67 69 71 74 77 76 75 73 71 71 71 70 69 69 68 67 66 65 63 62 62 62 63 63 62 59 57 56 55 54 53 53 52 53 53 54 54 55 55 56 56 56 56 55 54 54 54 53 53 53 53
58 58 58 60 61 62 62 62 62 62 62 63 63 64 64 65 66 67 68 69 70 71 71 71 70 69 69 68 68 67 66 66 65 69 73 69 66 67 66 67 70 75 77 76 75 72 71 71 70 70 70 69 68 67 66 65 64 64 64 65 65 62 58 57 57 56 55 54 53 52 53 53 54 54 55 55 55 55 55 55 54 54 54 54 54 53 53 52
57 57 57 59 61 62 62 63 63 63 63 63 63 64 65 66 67 67 67 68 69 70 72 73 72 71 70 69 68 67 66 65 64 70 73 69 68 67 65 66 67 71 74 75 75 74 72 71 71 70 70 70 68 68 67 66 66 66 67 68 66 61 59 59 58 56 55 54 53 53 53 54 54 55 55 55 55 55 55 55 54 54 54 54 53 52 52 51
57 57 57 57 59 61 62 63 63 63 63 63 64 64 65 66 67 68 68 69 69 69 71 72 73 72 71 70 69 68 67 65 65 70 72 70 69 67 66 66 67 68 69 71 73 75 74 73 72 71 71 70 69 68 67 67 67 68 69 69 66 62 60 60 58 56 55 55 54 54 54 55 55 55 55 55 55 55 55 54 54 53 53 53 52 52 51 51
58 58 58 58 59 60 61 62 63 64 64 64 65 65 66 66 67 68 68 69 70 70 70 71 72 72 73 72 71 69 68 67 67 70 71 70 69 68 67 66 67 67 66 67 69 73 75 75 73 72 72 71 70 69 68 68 68 69 70 68 65 63 61 60 58 56 56 55 55 55 55 56 56 55 56 55 55 55 55 54 53 53 53 52 52 52 52 51
61 61 61 61 61 62 62 63 64 65 65 66 66 67 67 67 67 67 68 69 70 71 71 71 71 71 73 73 73 71 68 68 70 71 71 70 69 68 67 66 67 67 65 65 66 69 73 75 75 74 73 72 71 70 69 69 68 69 69 67 64 62 61 59 57 56 56 56 56 56 56 56 56 56 56 55 55 55 54 53 53 53 52 52 52 52 52 51
63 64 64 64 65 65 65 66 67 67 68 68 68 68 68 68 67 67 68 69 70 71 72 72 71 71 72 73 74 72 69 72 74 72 70 70 68 67 66 66 67 67 66 65 66 66 68 71 75 76 75 74 73 72 70 69 69 69 69 66 63 61 59 57 55 56 57 56 56 56 56 56 56 56 56 55 54 53 52 52 52 52 52 52 52 52 51 49
65 66 66 67 67 67 68 68 69 69 70 70 70 69 69 68 67 67 67 68 69 71 72 72 72 72 72 72 73 72 73 78 76 71 70 69 68 67 66 66 67 68 66 66 65 65 65 67 72 75 76 76 75 73 70 69 69 69 68 65 63 61 58 55 54 55 56 55 55 56 56 55 55 56 56 53 52 51 51 51 52 52 52 52 52 51 49 48
67 68 68 69 69 69 70 70 70 70 71 71 71 70 70 69 68 68 67 68 69 70 72 72 72 72 71 72 72 71 76 81 77 73 72 70 69 68 67 66 67 68 67 66 65 65 65 66 68 72 75 76 75 73 71 69 69 70 67 64 61 59 57 55 54 55 54 54 54 55 54 54 55 56 54 51 50 50 50 51 51 52 51 52 51 50 49 47
69 69 70 71 71 71 71 72 72 72 72 71 71 71 70 70 69 69 69 69 69 70 71 71 71 71 71 71 70 72 80 82 79 76 73 71 71 69 67 66 67 68 67 66 66 65 66 65 65 67 70 73 75 74 71 69 70 70 66 62 60 58 56 56 56 55 54 53 53 54 53 54 55 54 51 49 49 49 50 51 51 51 51 51 50 50 48 47
71 71 71 72 73 74 74 74 74 74 74 73 72 72 72 71 71 71 70 70 70 71 71 71 71 70 70 69 69 75 81 81 80 78 74 73 72 69 68 66 66 67 67 66 66 65 65 64 64 64 66 68 71 73 71 70 71 69 66 63 60 58 57 56 55 55 54 53 53 52 53 55 54 51 48 48 48 48 50 51 51 51 50 50 50 50 48 47
74 73 73 73 73 74 76 77 77 76 76 75 75 74 74 73 73 73 72 72 72 72 72 71 70 70 68 67 71 78 80 80 80 79 77 76 73 71 69 67 67 67 67 67 66 65 64 63 63 63 63 64 67 69 70 70 71 69 65 63 61 59 57 56 55 54 53 52 52 52 54 55 52 49 47 47 47 49 50 50 50 50 50 51 50 49 47 46
76 76 75 75 75 75 75 77 78 79 79 78 77 76 76 75 74 74 74 73 73 72 72 71 70 70 67 67 74 77 77 78 80 80 80 79 76 73 71 69 68 67 67 67 66 65 65 64 63 62 62 62 64 66 67 69 70 68 65 63 60 58 57 56 55 54 53 52 51 52 54 53 49 47 46 46 48 49 50 50 50 50 51 50 49 48 46 46
78 78 78 77 77 76 76 76 77 79 80 81 80 79 78 77 76 75 75 74 74 73 72 71 70 69 68 70 75 76 75 77 80 82 82 81 79 76 74 72 69 68 68 67 65 64 64 63 62 62 62 62 62 63 64 67 68 67 64 62 59 58 57 56 55 54 53 52 50 52 55 51 47 45 45 47 49 50 49 49 50 50 50 49 48 47 47 47
80 80 79 79 78 78 77 77 77 78 80 81 82 81 79 78 77 77 76 75 74 73 72 71 70 69 69 72 74 73 75 78 81 82 82 82 82 79 76 73 70 69 68 66 65 64 63 62 62 61 61 61 61 61 62 65 66 65 63 61 59 58 57 56 55 54 52 51 50 53 54 49 44 45 47 48 49 49 48 48 50 50 50 49 48 48 48 48
79 79 80 79 79 79 78 77 77 77 78 79 81 81 80 79 78 77 76 75 74 73 72 71 70 69 70 73 73 73 76 79 80 80 82 83 83 81 78 75 72 70 69 67 65 63 62 61 61 60 60 60 60 60 60 63 65 65 63 60 59 58 57 56 55 54 52 50 51 55 53 47 43 46 49 49 49 48 48 49 50 50 50 49 50 50 49 49
75 76 77 78 78 78 78 77 76 76 76 77 78 78 79 79 78 77 76 75 73 72 71 70 70 70 71 74 74 73 75 77 78 78 82 83 83 82 80 77 74 72 70 68 65 63 61 60 60 59 59 60 59 58 58 60 64 65 64 62 60 59 58 57 56 53 51 50 53 55 52 46 44 48 50 49 48 47 48 49 50 50 50 50 51 50 50 50
71 72 73 74 75 76 75 75 75 75 75 75 75 75 76 76 76 75 74 73 72 72 71 71 71 71 73 74 73 72 74 76 77 78 81 83 83 82 81 78 75 73 71 69 66 63 61 60 59 58 57 58 58 58 58 60 63 65 66 65 63 62 60 59 56 53 51 51 54 55 50 46 46 49 50 48 48 48 49 49 50 50 50 50 51 50 50 51
66 67 69 70 71 72 72 73 73 72 72 72 71 71 71 72 72 72 71 71 72 72 71 71 71 71 72 72 71 71 72 74 76 77 79 82 83 82 81 79 76 74 73 71 69 66 62 59 57 56 57 58 58 59 59 60 61 64 66 66 65 63 61 59 56 52 51 52 55 53 49 47 48 49 49 48 49 49 49 49 50 50 51 51 50 49 50 50
60 62 64 66 67 68 68 69 69 69 70 69 68 67 68 68 69 69 70 71 72 71 70 70 70 70 71 71 71 71 70 72 75 77 78 81 81 80 79 77 76 75 74 73 72 68 64 59 58 58 59 60 59 60 60 60 60 62 64 66 66 64 62 60 56 52 52 54 54 51 48 49 49 49 48 48 49 49 49 50 50 51 51 50 49 49 49 50
55 57 59 61 62 63 64 65 66 67 67 66 64 64 66 67 68 68 68 69 69 68 67 67 67 68 70 70 70 69 69 71 75 76 77 78 79 78 76 75 74 74 74 74 72 69 65 61 60 61 61 60 60 60 60 60 60 61 63 64 65 65 64 61 56 53 54 55 53 50 49 50 49 49 48 49 49 50 50 50 51 51 51 50 49 49 49 49
50 51 53 55 57 58 59 61 62 63 63 61 61 62 64 65 66 66 65 66 65 64 64 64 65 68 69 69 68 67 68 71 74 75 75 75 76 77 75 73 73 73 73 72 70 68 66 64 64 63 62 61 60 60 60 60 60 60 60 61 64 66 66 62 57 54 55 55 53 51 50 50 50 49 49 49 50 50 50 50 51 51 51 49 49 49 49 48
44 46 48 50 52 53 55 57 58 58 57 57 58 59 60 61 61 61 61 61 61 60 61 62 64 65 66 66 64 64 67 70 72 73 73 73 75 76 75 73 72 71 71 70 69 67 67 67 67 66 64 62 62 61 59 59 59 59 58 59 63 66 66 63 58 56 56 55 53 52 51 50 49 49 49 50 51 51 51 50 51 51 50 49 49 49 49 48
41 42 44 46 47 49 51 52 53 52 52 53 53 54 56 57 57 57 57 58 58 58 59 60 62 64 64 61 59 62 66 67 69 71 72 73 74 76 75 73 72 70 70 69 68 67 67 68 68 66 65 64 63 61 60 59 59 59 57 58 62 65 65 63 59 57 57 56 55 53 51 50 49 49 50 51 52 51 51 51 50 50 50 50 50 49 48 48
39 39 41 42 44 45 46 46 47 48 49 51 51 52 54 54 54 54 55 55 56 56 57 58 62 63 59 57 59 63 64 65 68 70 71 73 74 76 76 74 72 71 71 70 68 67 67 68 68 67 67 66 63 62 61 60 59 58 57 59 61 62 63 63 60 58 59 57 56 54 52 50 50 51 52 52 52 52 51 50 49 49 50 50 50 49 48 48
37 37 38 39 40 41 41 43 45 47 49 51 51 52 52 53 53 52 53 54 55 55 57 59 61 60 56 58 62 63 63 64 67 69 71 73 74 75 75 74 72 72 72 71 68 67 66 67 68 67 67 65 63 62 62 60 58 57 58 60 61 61 61 62 61 60 60 59 57 55 52 51 51 53 53 53 53 52 51 49 49 49 49 50 50 49 48 48
35 35 37 38 38 39 41 44 47 49 50 52 52 52 53 53 52 51 52 53 54 55 57 59 59 57 56 60 61 61 63 64 65 69 72 73 73 74 73 73 72 72 72 71 69 67 67 68 69 67 65 63 62 62 62 61 58 57 60 61 61 59 59 61 61 61 61 60 58 55 52 51 52 53 54 54 54 52 50 49 48 49 49 49 49 49 48 47
34 35 36 38 40 41 43 45 46 47 48 49 50 51 52 53 53 53 53 54 55 56 58 59 58 56 57 59 60 62 63 61 64 70 72 73 73 73 73 73 73 73 73 72 70 70 70 70 70 68 65 64 64 64 64 61 58 59 61 62 60 59 58 60 62 62 62 60 58 55 52 52 53 54 55 54 53 51 49 49 48 49 49 49 48 48 47 47
34 36 38 40 41 42 42 41 41 41 42 42 44 46 48 50 53 55 56 56 57 58 58 58 57 57 59 60 61 62 60 59 62 67 69 70 72 73 73 74 74 73 73 72 71 70 71 71 69 66 64 65 66 65 64 61 60 61 62 61 60 58 58 59 62 62 62 60 57 54 52 52 54 54 55 54 52 50 49 49 49 49 49 48 48 47 47 47
35 37 39 41 41 39 38 35 33 34 35 35 37 39 41 45 49 54 58 60 61 59 58 57 58 59 60 61 62 60 58 58 60 61 64 67 69 71 72 72 72 72 71 72 70 69 69 68 64 62 63 65 65 64 63 62 61 62 62 61 60 59 57 58 61 61 61 58 56 53 52 53 54 54 54 53 51 50 50 49 49 49 48 48 48 47 46 46
36 38 40 41 38 34 32 29 27 28 29 29 31 33 35 39 45 52 58 63 63 61 58 58 58 59 61 63 63 60 58 58 57 58 61 64 66 68 69 69 69 69 69 68 67 66 66 64 61 60 62 64 64 63 62 61 61 62 62 60 59 57 55 55 58 59 58 56 54 53 53 53 54 54 53 52 51 51 50 50 50 49 48 48 47 46 46 45
37 38 40 39 34 29 26 25 24 24 25 26 27 29 33 38 44 50 56 62 65 63 61 60 60 61 63 64 62 60 58 58 56 57 59 62 63 65 65 66 66 66 67 66 65 64 63 60 58 59 60 61 62 61 60 59 59 59 59 58 56 54 52 52 54 55 54 54 54 53 53 54 55 54 52 51 51 51 50 50 50 48 48 47 47 46 45 44
37 38 38 35 29 25 23 23 22 23 24 26 28 31 35 39 42 47 53 61 66 66 63 61 62 62 63 63 61 59 57 55 55 56 57 57 58 58 59 60 61 63 64 64 63 62 59 56 55 56 58 59 60 60 59 59 59 59 58 56 54 52 51 52 53 53 54 55 55 55 55 56 55 53 52 51 51 51 51 51 50 48 47 47 46 45 44 43
36 37 35 30 25 22 21 21 21 22 24 26 29 32 34 37 39 44 50 58 65 66 64 63 62 61 60 60 60 59 57 54 53 53 53 54 54 54 55 55 57 58 59 59 58 57 55 54 55 57 58 59 60 60 60 61 60 59 58 56 54 53 54 54 54 55 57 58 58 57 57 56 54 53 51 50 50 50 51 51 49 47 47 46 45 44 43 43
35 34 31 25 22 20 19 19 20 21 23 26 28 30 32 35 38 43 49 56 62 65 65 64 62 61 59 58 57 57 56 54 53 53 52 53 53 54 54 53 54 55 55 54 53 53 53 54 57 58 58 60 61 61 61 60 59 57 55 54 53 54 55 56 56 57 59 59 58 57 55 54 53 52 51 51 50 50 50 50 48 46 46 46 45 43 43 44
33 31 26 22 20 18 18 19 20 21 22 24 26 29 32 35 39 43 48 53 58 62 65 65 64 62 60 57 56 56 55 55 54 54 53 53 52 52 52 52 52 53 52 52 51 52 53 56 57 58 59 60 61 60 60 59 58 56 55 55 56 56 56 56 57 57 58 58 56 55 54 53 52 52 51 50 50 50 50 48 47 47 47 46 44 43 44 44
31 28 23 20 18 17 17 19 19 20 21 23 26 29 33 36 39 43 46 49 52 57 62 65 65 63 61 58 58 57 57 57 55 54 54 53 52 51 50 51 51 51 50 50 51 53 55 58 58 59 59 60 60 60 59 58 57 57 58 59 59 57 57 57 57 57 57 56 54 53 53 52 52 53 52 50 51 51 50 48 48 48 48 47 45 44 44 44
28 25 21 18 16 17 18 18 18 19 22 25 27 30 33 36 38 40 42 45 47 51 56 62 65 64 61 59 59 59 59 59 57 56 55 54 53 52 51 51 51 49 49 49 51 54 56 57 57 58 58 58 59 59 58 57 57 58 59 59 58 56 57 58 57 57 56 55 54 54 53 53 53 54 52 51 52 51 50 49 50 49 48 47 45 45 45 46
26 22 19 16 16 17 17 17 18 21 24 26 29 31 33 34 35 36 38 41 44 47 51 55 59 62 62 61 61 61 61 60 59 58 56 56 55 54 53 52 51 49 48 49 51 54 55 56 56 57 57 57 57 57 57 58 58 58 57 56 54 54 55 56 56 55 55 54 54 54 55 56 56 55 54 53 51 51 51 51 50 49 49 48 47 47 47 48
23 19 17 15 16 16 16 18 20 23 25 27 29 31 33 34 35 36 37 39 40 41 43 46 50 55 60 62 62 62 62 61 60 59 58 57 56 55 55 54 52 50 49 49 51 53 53 54 55 55 55 56 56 56 58 58 58 58 58 57 56 56 56 57 56 55 55 55 54 55 56 57 57 55 54 52 51 52 52 50 50 50 50 50 49 50 49 49
20 17 15 15 16 16 18 20 22 24 27 29 31 33 35 36 38 38 38 38 38 38 39 41 43 47 52 57 60 62 63 63 62 61 59 58 57 56 56 56 54 53 51 51 52 53 53 53 53 54 54 55 56 57 58 58 58 58 58 58 57 57 58 58 57 56 56 55 55 55 57 57 56 55 54 53 53 53 52 51 52 53 52 51 51 51 51 51
18 16 15 16 17 18 22 24 24 27 31 33 34 36 39 40 40 40 39 39 39 40 40 39 40 41 45 49 52 56 59 61 61 60 59 59 58 58 57 56 55 54 54 55 54 53 52 52 52 52 53 55 56 57 57 57 57 57 57 57 56 56 56 55 55 55 54 54 54 55 56 57 57 57 56 55 55 54 53 54 54 54 53 53 52 52 52 51
15 14 16 18 19 23 26 28 29 32 34 36 38 40 43 43 42 42 41 41 42 42 42 42 42 42 43 45 45 47 50 53 55 55 55 56 57 57 56 55 54 54 54 54 54 53 53 52 52 52 53 55 55 54 54 54 54 55 55 55 55 55 54 54 53 53 53 54 55 56 57 58 58 58 57 57 56 55 55 55 55 55 55 54 54 53 52 51
13 15 18 19 22 27 30 31 34 36 36 37 41 43 45 45 44 44 44 44 44 45 44 43 42 43 44 44 45 45 45 45 45 46 48 50 51 52 51 51 51 51 51 51 51 52 53 54 54 54 54 53 51 50 50 51 52 53 53 54 54 53 53 53 53 53 54 55 56 57 58 59 59 59 59 58 56 56 57 57 57 57 57 56 55 53 52 51
15 19 21 23 26 31 33 36 38 38 37 39 41 43 45 44 45 48 49 47 48 48 47 44 43 43 46 47 47 47 45 44 43 43 44 45 47 48 47 47 48 50 51 51 50 51 54 55 56 56 54 52 51 51 52 52 53 53 53 53 53 53 53 54 54 55 56 57 58 59 60 60 60 60 59 59 58 58 58 58 58 58 57 57 55 54 52 51
18 22 25 28 32 35 37 40 41 39 38 38 40 43 45 45 44 49 52 50 49 50 49 48 47 46 48 49 49 47 45 44 45 46 47 47 48 49 48 49 51 52 54 55 55 55 55 55 54 54 53 53 53 54 55 55 55 54 54 54 54 54 54 55 55 57 57 58 59 60 60 61 61 61 61 60 60 60 60 60 59 59 58 57 56 54 53 51
21 24 27 31 36 38 40 42 42 40 37 37 40 44 47 46 44 49 54 52 50 50 50 50 50 50 49 49 48 47 44 43 44 45 48 48 49 50 50 51 53 54 56 57 58 57 57 55 54 52 53 54 55 56 56 56 55 55 55 55 55 55 55 56 56 56 57 58 59 60 61 61 61 62 62 62 61 61 61 61 60 59 58 58 57 55 53 51
24 27 30 35 38 39 41 43 42 39 36 37 43 47 49 48 46 49 53 52 50 50 50 50 50 50 49 47 47 47 45 43 43 44 45 46 46 48 49 50 52 54 56 56 57 58 58 57 56 54 54 55 56 56 56 56 56 55 55 56 55 56 56 56 56 56 57 58 60 60 60 61 62 62 62 62 62 62 62 61 60 59 58 58 57 56 54 52
27 30 32 38 41 41 43 44 42 38 35 38 45 49 50 50 49 49 51 50 49 49 50 50 49 49 49 47 46 47 46 45 45 45 45 45 46 47 49 50 52 54 56 57 57 59 59 58 57 55 55 56 56 56 57 57 57 57 57 57 56 56 56 56 56 57 58 59 60 61 61 61 62 62 62 62 62 62 62 61 60 59 58 58 57 56 55 53
30 32 35 41 45 44 45 45 41 37 37 41 47 51 51 51 51 50 50 50 49 49 49 49 48 48 48 47 47 47 47 47 47 47 48 48 48 49 50 52 54 56 57 59 59 59 59 58 57 56 56 56 57 57 57 57 57 58 58 57 57 57 57 57 58 58 59 60 61 61 62 62 63 63 63 63 62 62 61 60 60 60 59 58 58 57 55 54
32 35 39 44 47 47 46 45 41 38 38 43 49 53 53 51 51 50 49 49 49 48 47 47 47 47 47 47 47 47 47 47 47 48 49 50 50 51 52 54 56 56 57 58 59 59 58 57 56 56 56 56 56 56 57 57 58 58 58 57 57 58 58 59 59 60 61 62 62 62 63 63 64 63 63 63 62 62 61 61 60 60 60 59 58 58 56 54
Wind_Direction
270 267 263 260 258 257 256 255 255 255 254 254 254 254 254 253 252 251 249 248 246 245 243 242 242 242 242 242 243 243 244 244 244 244 243 242 241 241 240 240 240 240 240 240 239 239 239 239 240 240 241 242 243 243 244 244 245 245 246 247 247 247 247 248 249 250 251 251 252 252 253 254 255 256 256 257 258 259 261 262 263 265 267 268 269 270 271 272
270 267 263 260 257 255 254 254 254 254 254 254 253 253 253 253 253 252 251 250 248 247 245 244 242 241 240 240 241 241 242 242 242 243 243 243 242 241 241 239 239 239 239 239 238 238 238 239 239 240 240 241 242 242 243 244 244 245 246 246 247 247 248 249 250 251 251 252 252 253 254 255 255 257 258 258 259 260 262 263 264 266 267 268 269 270 271 273
269 266 263 260 258 256 254 254 253 254 254 254 254 253 253 253 253 252 252 251 250 248 247 245 243 242 240 239 239 239 240 240 240 241 243 243 242 241 241 240 239 239 238 237 238 237 238 238 238 239 240 240 241 241 242 243 243 244 245 246 246 247 248 249 249 250 251 252 253 254 255 256 256 257 258 259 260 262 263 264 265 266 267 268 270 271 272 273
268 266 264 262 259 257 255 254 254 254 254 254 254 254 254 253 253 252 252 251 251 250 248 247 245 243 241 240 238 238 238 238 238 240 242 241 241 241 240 240 239 239 238 237 237 237 237 237 237 238 239 239 240 240 241 242 242 243 244 245 246 246 247 248 249 250 251 252 253 254 255 256 257 258 259 260 261 262 263 264 265 266 268 269 270 271 272 273
267 266 264 262 260 259 257 256 255 255 254 254 254 255 255 254 253 252 251 251 250 250 249 248 246 244 243 241 239 238 237 236 236 239 241 240 240 240 239 239 240 240 239 238 236 236 236 236 236 237 238 239 239 240 240 241 241 242 243 244 245 246 247 247 249 250 252 253 254 255 256 257 257 258 259 260 261 262 263 265 266 267 268 269 270 271 271 272
267 266 265 263 262 260 259 258 257 256 256 256 256 255 255 255 254 253 252 251 250 249 249 248 247 245 244 242 240 239 237 237 237 238 239 239 238 238 238 238 239 239 239 238 237 235 235 235 235 236 236 237 238 238 239 240 241 242 243 244 245 245 246 248 249 250 252 253 254 255 256 257 257 258 259 260 261 262 263 265 267 268 268 269 270 270 271 271
266 265 265 264 263 261 260 259 258 258 257 257 257 256 256 255 254 254 253 252 250 249 248 248 247 246 244 243 242 240 239 239 238 237 238 237 237 237 237 237 237 238 238 238 237 236 235 234 234 235 235 236 237 237 238 239 240 242 243 244 245 246 247 248 249 251 252 253 253 254 255 256 257 258 258 259 261 262 264 266 267 267 268 269 269 270 270 272
265 264 264 263 262 262 261 260 259 259 258 258 257 256 256 255 254 253 252 252 251 250 248 247 247 245 244 243 242 240 240 241 238 236 237 237 236 236 235 236 236 237 237 237 237 237 236 234 234 235 235 236 236 237 237 239 240 242 243 244 245 246 247 248 249 250 251 252 252 253 254 255 256 257 258 259 261 263 265 265 266 266 267 268 268 269 271 274
265 263 262 262 261 261 260 260 259 259 259 258 258 257 255 254 254 253 252 251 251 250 249 247 246 245 244 243 242 240 240 242 238 236 238 237 235 234 234 234 235 235 235 235 237 237 236 235 234 234 234 235 236 237 237 239 240 242 242 243 244 245 246 247 249 249 250 251 252 253 253 254 255 256 257 259 261 263 264 264 265 265 266 267 268 270 273 275
266 264 263 261 260 260 259 259 259 259 259 258 257 256 255 254 253 252 252 251 251 250 249 248 246 244 244 242 241 240 239 240 239 237 238 237 235 234 233 233 234 235 234 234 235 235 235 235 234 234 234 235 236 237 237 238 240 242 242 243 244 245 246 246 247 248 249 250 251 252 252 253 254 254 256 259 260 262 263 263 264 265 266 268 269 271 273 275
267 265 263 262 261 260 259 258 258 257 257 257 257 256 255 254 253 252 251 251 250 250 250 249 247 245 243 242 241 239 239 239 238 237 237 237 236 234 233 232 233 234 233 233 233 234 235 235 235 234 234 235 235 236 237 238 240 241 242 243 243 244 244 245 245 246 248 248 249 250 251 251 251 253 256 258 259 261 261 262 263 265 267 268 270 272 274 276
267 266 265 263 262 260 259 258 257 257 257 257 256 256 254 253 252 252 251 250 250 250 249 249 248 246 243 242 240 238 238 237 237 236 237 237 236 234 233 232 232 233 232 232 231 232 233 234 234 234 234 234 235 236 236 237 239 241 241 242 242 242 243 243 244 245 246 247 248 249 249 249 251 253 256 257 259 259 259 260 263 265 267 269 271 273 275 277
266 265 264 263 263 261 260 258 257 256 256 256 256 255 254 253 252 251 251 250 250 249 249 249 248 247 244 241 239 238 237 236 236 235 235 236 236 235 234 232 232 232 232 231 230 230 231 232 233 233 234 234 234 235 235 236 239 240 240 241 241 241 242 243 243 244 245 246 247 247 247 248 251 254 256 257 257 257 258 261 264 266 267 269 272 274 276 278
265 264 263 263 262 262 260 259 257 256 255 255 255 254 254 253 252 251 251 250 250 249 249 249 248 247 244 242 240 238 237 236 234 234 234 234 235 234 234 234 233 232 232 230 229 229 229 230 232 233 233 233 234 234 234 235 237 238 239 239 240 240 241 242 242 243 244 244 245 246 247 248 251 254 256 256 255 256 259 261 264 266 268 270 273 275 277 279
264 263 262 262 262 261 261 260 258 256 255 254 253 253 253 252 252 251 250 250 250 249 249 248 247 246 244 242 240 238 236 235 233 232 232 233 233 234 234 234 233 233 232 230 229 229 229 230 231 232 233 233 233 233 233 234 235 236 237 238 239 239 240 241 241 241 242 243 244 245 246 248 251 254 254 254 254 256 259 261 262 265 267 270 273 275 277 279
264 263 262 262 261 261 261 260 258 257 255 254 253 252 252 251 251 251 250 250 250 249 248 248 247 245 243 242 241 238 235 233 231 231 230 231 232 233 233 233 234 234 233 231 229 228 228 229 229 231 232 233 233 233 233 233 234 234 235 236 238 238 239 239 239 239 240 242 243 244 246 248 250 251 251 251 253 256 258 259 261 264 268 270 273 274 277 279
265 264 263 262 261 261 260 259 258 257 255 254 253 252 251 251 251 250 250 250 250 249 248 247 246 245 243 242 241 237 233 232 231 230 229 230 231 232 232 233 234 234 234 233 230 228 228 228 228 229 231 232 233 233 233 233 233 233 233 234 235 236 236 236 237 238 239 240 242 244 245 247 247 248 248 250 253 256 257 259 261 265 268 271 272 274 278 281
265 264 263 262 261 260 260 259 258 257 256 254 253 252 251 251 251 251 251 250 250 249 248 247 245 243 242 241 239 236 232 231 230 229 228 229 230 231 232 232 233 234 235 234 232 229 227 227 227 228 229 231 232 233 233 233 232 232 231 230 232 234 234 234 235 237 238 239 241 243 245 245 245 245 247 250 253 255 256 259 263 266 269 271 273 276 281 284
265 263 262 261 260 260 259 258 258 257 256 255 253 252 251 251 251 251 251 250 250 248 247 245 243 241 240 239 238 234 231 229 229 228 227 227 228 229 230 231 232 234 235 235 234 230 227 226 226 227 229 231 232 232 231 232 232 231 230 228 229 232 233 234 235 236 237 239 241 243 244 244 243 244 247 249 252 254 256 260 263 266 269 271 275 279 284 287
265 263 262 261 260 259 258 258 257 257 256 255 254 253 252 252 251 251 250 250 249 247 245 243 242 240 238 238 236 233 229 227 228 227 226 226 227 228 229 230 231 232 234 235 235 233 229 227 226 226 227 228 229 230 230 231 232 232 231 229 228 230 232 234 234 235 237 239 241 243 244 243 243 244 246 248 251 254 257 260 263 266 269 273 277 282 285 288
265 262 261 260 259 258 258 257 257 256 256 255 254 253 253 252 251 250 249 248 247 245 243 241 239 238 237 235 234 231 228 226 227 227 226 225 225 226 228 229 230 231 233 234 235 234 230 227 227 227 226 226 227 228 229 230 231 232 231 230 228 229 231 233 233 234 236 239 241 243 244 243 243 244 246 248 251 254 256 259 263 266 270 274 279 283 286 289
265 263 261 260 259 258 257 257 256 256 255 255 254 254 253 252 250 249 247 246 244 242 240 238 236 235 234 232 230 228 226 225 226 226 225 224 224 225 227 228 229 230 232 233 234 234 231 229 229 228 226 226 226 227 228 228 230 231 231 230 229 228 230 231 232 232 235 239 241 242 243 242 242 244 245 247 250 253 256 259 263 267 271 276 280 284 287 288
267 264 262 261 260 259 258 257 256 256 256 255 255 253 251 250 247 245 243 242 240 238 236 234 233 232 231 230 228 226 226 225 224 224 224 223 223 223 224 226 227 229 231 232 232 232 232 230 230 230 227 226 226 226 227 228 229 230 231 230 229 228 229 230 230 232 235 239 241 241 241 241 242 243 245 247 250 253 256 259 263 268 272 277 281 284 287 288
270 267 264 262 261 260 259 258 258 257 257 255 253 250 248 245 243 241 239 237 236 234 232 231 230 230 229 228 226 226 226 225 223 223 222 221 221 222 222 223 225 227 228 230 230 230 230 230 229 229 227 226 226 226 226 227 228 230 231 231 230 229 228 228 228 231 234 238 240 240 240 240 241 243 245 247 250 252 255 259 263 268 273 277 281 284 287 288
273 270 267 265 263 262 261 260 259 258 256 253 249 246 244 241 239 236 234 233 232 230 229 228 227 227 226 225 225 226 226 224 222 221 220 220 219 219 221 222 223 224 226 228 228 228 228 229 229 228 227 226 225 225 225 226 227 228 229 230 230 229 229 228 227 230 234 237 239 239 239 240 241 243 244 246 249 252 255 259 263 269 274 278 282 285 286 287
276 273 270 268 266 264 262 261 259 257 254 251 247 243 240 238 235 233 231 230 229 227 226 225 225 225 223 222 223 224 223 222 221 219 219 219 218 218 219 220 221 222 224 226 226 226 227 229 229 228 227 226 224 223 224 225 226 227 228 230 230 230 229 227 227 230 233 236 238 238 239 239 240 242 244 246 249 252 255 259 264 269 274 279 282 284 285 287
279 276 273 271 268 266 265 263 260 256 253 250 246 242 239 236 233 230 229 228 226 224 223 223 223 222 220 220 221 222 221 220 219 218 217 218 218 218 219 219 220 221 223 225 225 225 226 229 229 227 227 226 224 223 223 224 224 226 227 229 230 229 228 226 226 229 232 235 236 238 238 238 239 242 244 246 249 252 256 260 265 269 274 279 282 284 285 287
281 279 276 274 272 270 268 265 261 258 254 251 248 244 240 235 231 228 226 225 224 223 222 222 221 219 218 219 220 219 219 218 216 216 216 217 216 217 218 219 220 221 223 224 225 224 225 227 228 227 225 225 225 224 223 222 222 224 226 228 228 228 227 225 225 228 231 233 235 237 237 238 239 242 244 247 249 253 257 261 265 269 274 278 281 282 284 286
284 282 281 280 278 275 271 267 263 260 256 252 248 244 239 235 229 225 222 222 221 220 220 220 219 218 217 218 218 218 218 216 215 215 215 215 216 216 217 217 219 221 223 224 223 223 224 226 226 225 223 223 223 222 222 221 221 223 225 226 227 227 226 224 224 227 230 232 235 236 237 237 239 242 244 247 250 254 257 261 265 269 273 277 279 280 283 286
286 286 286 285 283 280 275 270 264 260 255 250 246 241 236 231 227 222 219 218 218 218 217 216 216 215 215 215 216 216 216 215 215 215 215 215 215 215 216 217 219 220 222 224 224 224 225 226 226 224 222 222 221 220 220 219 220 222 224 225 226 226 225 223 223 226 229 231 234 235 236 237 238 241 244 247 251 254 258 261 264 268 272 275 277 279 282 285
289 290 291 290 287 283 277 270 263 257 251 246 241 236 231 226 222 218 215 214 215 215 214 213 213 213 213 213 213 214 214 214 215 215 215 216 216 216 217 218 220 221 223 224 225 225 227 228 227 225 223 222 221 220 218 218 220 222 224 225 225 226 225 223 223 225 228 231 233 234 234 236 238 241 244 248 251 255 258 261 264 268 271 274 275 278 281 284
292 294 295 294 289 283 276 269 260 252 247 241 235 230 225 220 216 214 211 211 213 212 211 211 210 210 211 211 210 210 210 211 212 212 213 215 216 217 218 219 221 222 224 226 226 226 226 226 226 225 224 222 221 219 218 219 221 223 225 226 227 227 227 226 224 224 228 231 233 233 234 236 238 241 244 248 252 254 257 261 264 268 271 272 274 277 280 283
295 297 298 295 290 283 274 265 255 246 239 232 226 221 216 213 210 209 207 207 210 210 208 208 208 209 209 209 208 208 208 208 208 208 210 212 214 215 217 218 219 220 222 223 224 224 225 224 223 224 224 223 221 219 218 220 223 225 226 227 228 229 229 227 224 224 228 231 232 232 233 236 238 241 244 248 251 254 257 260 264 267 270 272 274 276 279 283
298 300 300 295 289 282 271 259 248 238 229 222 216 211 208 207 205 205 203 204 207 208 206 206 207 208 208 207 206 206 207 207 206 206 207 209 211 213 214 216 217 219 220 220 220 221 222 222 221 222 223 222 220 219 218 220 222 224 225 225 226 227 226 223 221 222 227 228 228 229 231 234 237 240 243 247 251 254 257 260 264 267 269 271 273 276 279 282
300 302 301 295 287 277 265 253 240 230 221 215 211 208 205 202 200 200 201 202 205 206 205 205 207 208 208 207 205 204 205 205 205 206 206 206 207 209 211 213 215 216 218 219 218 216 215 215 216 218 219 219 218 218 219 220 221 222 222 223 224 224 223 220 218 220 224 225 225 227 230 233 237 240 243 247 250 254 258 261 265 267 268 269 272 275 278 280
302 304 301 291 280 269 255 242 230 221 215 211 207 203 200 196 194 195 198 201 203 204 203 204 204 205 207 206 205 205 205 204 203 204 205 205 205 205 206 208 210 212 213 213 213 212 210 211 212 214 215 216 216 217 218 220 221 222 222 222 223 223 221 219 217 220 223 224 225 228 231 234 238 241 244 247 250 253 257 262 266 266 267 269 271 274 276 279
303 304 296 283 271 258 244 232 221 213 209 205 200 196 193 191 190 192 195 199 202 202 202 203 203 203 203 202 202 204 204 204 203 203 203 204 205 205 205 205 206 208 208 208 207 207 208 209 210 211 213 215 215 216 218 219 219 220 221 221 222 221 220 218 218 220 223 225 226 229 232 235 239 241 244 246 249 253 257 262 264 265 267 269 271 273 275 278
304 300 288 275 262 246 232 222 213 206 201 196 192 190 188 187 188 191 193 196 199 201 202 203 203 204 202 200 199 201 203 204 203 203 203 203 205 206 206 205 206 206 206 205 204 204 207 208 208 209 211 213 214 216 218 219 219 219 219 219 220 219 218 218 218 221 224 225 226 229 233 236 238 240 242 245 249 254 258 260 262 264 266 268 270 272 274 276
302 294 280 267 252 236 223 212 203 197 192 188 186 185 185 185 186 189 191 192 194 198 201 203 203 203 202 200 199 199 201 202 202 203 203 203 204 205 206 206 207 206 206 205 204 205 207 208 209 209 210 212 214 215 217 218 219 220 220 220 220 219 218 218 218 221 223 224 225 228 231 234 236 239 241 244 249 254 257 258 261 264 266 269 270 271 272 275
298 287 271 257 241 227 214 201 193 189 185 182 181 181 181 180 181 183 186 188 190 194 198 201 202 203 202 201 200 200 200 201 201 202 203 203 204 204 205 206 207 207 207 206 206 207 208 208 210 210 211 212 214 215 216 218 219 220 220 221 221 221 220 220 220 221 223 224 225 228 231 233 235 238 242 245 250 253 255 258 262 265 266 267 269 270 272 275
292 278 262 246 230 216 201 189 186 183 180 177 176 176 174 171 171 173 178 181 184 187 191 194 198 201 202 201 201 201 201 201 201 201 202 203 204 204 204 205 206 206 207 208 210 211 210 210 210 211 211 212 213 215 216 218 219 219 219 219 218 218 218 220 221 222 223 224 225 228 231 235 237 239 243 246 249 252 254 258 261 262 264 266 268 270 272 275
283 266 249 231 216 200 185 181 180 176 172 170 170 167 164 163 164 166 169 171 172 175 178 181 186 192 196 198 200 202 202 202 202 202 202 203 204 204 205 206 206 206 206 209 211 213 213 213 212 212 212 212 213 215 217 219 219 219 219 218 218 218 217 218 220 221 222 223 225 228 232 236 239 240 242 245 247 250 253 256 258 260 263 266 268 270 273 276
273 254 233 215 200 183 174 174 173 170 168 166 163 160 156 156 159 159 159 160 161 162 162 164 169 176 183 188 192 197 200 201 201 202 203 203 203 205 206 206 207 207 207 208 210 212 213 214 214 213 213 213 214 216 218 219 220 220 220 219 219 219 219 220 221 222 223 224 226 229 233 236 239 241 242 244 246 250 252 255 258 260 263 265 267 270 273 276
260 239 218 203 185 173 171 170 167 168 168 164 159 156 154 154 156 154 152 153 153 152 151 153 157 162 168 173 177 184 189 193 195 197 200 201 203 205 205 205 205 207 207 207 208 209 209 210 212 213 214 216 217 219 220 221 222 221 221 221 220 220 221 222 223 224 224 225 227 230 233 236 239 242 244 245 247 250 252 254 257 259 261 264 267 271 273 276
237 214 204 191 175 170 169 167 166 168 168 163 158 157 155 154 154 150 147 147 146 144 146 148 151 154 157 160 163 166 171 175 180 184 189 193 195 198 198 198 199 201 202 203 204 206 206 207 209 211 214 216 219 221 223 223 223 222 222 222 222 222 223 223 224 223 224 225 227 230 233 236 239 241 244 246 247 249 251 253 255 258 261 264 268 271 273 276
215 197 190 179 170 169 167 165 167 169 168 164 160 158 154 153 154 148 143 144 144 143 144 145 147 150 152 154 156 157 159 162 165 169 175 180 184 186 187 190 192 195 197 198 201 205 207 208 209 211 214 215 216 218 220 220 221 221 221 222 223 223 224 225 224 224 225 226 228 230 233 235 238 241 243 246 248 249 251 253 255 258 261 265 268 271 273 275
202 192 183 171 167 169 168 167 168 170 170 165 160 156 151 152 155 149 143 145 147 145 145 145 148 152 153 155 158 158 158 161 164 166 170 174 180 183 186 189 192 194 196 199 202 205 208 210 211 212 213 214 215 216 217 218 218 219 220 221 222 223 224 224 225 225 226 227 229 231 233 235 238 240 243 245 247 249 251 253 256 259 262 265 268 271 272 274
193 188 179 169 168 170 169 168 169 170 170 164 156 153 150 151 154 150 146 148 150 149 148 149 151 154 156 158 161 162 163 165 168 172 174 177 182 186 189 192 194 196 199 201 204 207 211 213 214 214 215 215 215 216 216 217 218 218 219 221 222 223 223 224 225 226 227 229 230 231 233 236 238 240 243 245 247 249 252 254 257 259 262 265 268 270 272 274
186 183 175 167 169 171 169 169 171 170 167 160 153 152 150 150 153 152 150 151 153 153 153 153 154 157 159 161 163 165 167 169 172 177 180 183 186 189 193 195 197 199 201 203 206 209 212 214 216 217 217 216 216 216 216 217 217 218 219 221 223 223 224 225 226 227 228 230 231 232 234 236 238 240 243 245 248 250 252 255 257 260 263 266 268 270 272 274
181 179 171 166 168 171 170 170 171 168 163 157 154 153 152 151 153 155 154 155 156 157 157 157 159 161 164 166 167 169 171 173 176 179 183 186 189 192 194 197 199 201 203 205 207 209 212 215 217 219 218 217 217 217 217 217 218 219 219 221 223 224 225 225 226 227 229 230 232 233 234 236 238 240 242 245 248 250 253 256 259 261 264 266 268 270 272 274
178 175 169 165 168 171 171 171 171 166 158 156 156 155 155 155 156 158 158 158 159 160 160 161 163 165 169 172 173 176 178 179 182 184 186 189 191 194 196 199 201 204 205 207 209 211 214 215 216 217 217 216 216 217 217 218 218 219 220 221 223 224 225 226 226 227 229 230 232 233 235 236 239 241 243 245 248 251 254 257 259 262 264 266 268 270 272 274
175 172 168 166 168 170 170 171 170 165 159 158 159 158 159 160 160 161 162 163 163 164 165 166 167 169 172 176 178 180 183 185 187 190 192 194 196 198 200 202 204 206 208 210 212 213 215 215 215 215 216 216 216 217 217 218 219 220 221 222 224 225 226 227 227 228 229 231 232 233 235 237 239 242 245 247 250 252 254 257 259 262 264 266 268 270 271 273
Height
10593 10593 10594 10595 10595 10595 10596 10598 10599 10600 10602 10604 10606 10608 10610 10612 10614 10616 10619 10621 10624 10627 10630 10633 10636 10640 10644 10647 10651 10653 10658 10662 10665 10667 10662 10662 10673 10681 10685 10690 10694 10698 10704 10708 10713 10717 10721 10724 10728 10731 10734 10737 10741 10745 10749 10753 10757 10760 10762 10762 10763 10765 10770 10775 10778 10780 10784 10786 10788 10789 10789 10790 10789 10789 10790 10790 10790 10791 10792 10793 10796 10798 10799 10801 10803 10804 10804 10804
10585 10585 10586 10586 10587 10587 10588 10590 10591 10592 10594 10596 10598 10600 10602 10604 10606 10608 10610 10612 10616 10619 10621 10624 10628 10632 10636 10640 10643 10646 10651 10654 10659 10657 10650 10658 10671 10673 10676 10683 10686 10689 10694 10699 10705 10711 10715 10719 10722 10725 10728 10731 10735 10739 10743 10747 10751 10753 10755 10755 10755 10759 10767 10772 10774 10775 10778 10781 10783 10784 10784 10784 10785 10785 10785 10785 10786 10786 10788 10790 10792 10794 10795 10796 10797 10799 10799 10800
10577 10577 10577 10578 10578 10579 10580 10581 10583 10584 10586 10588 10590 10591 10594 10596 10598 10600 10602 10604 10607 10610 10613 10616 10619 10624 10629 10632 10635 10640 10644 10648 10652 10645 10642 10656 10664 10665 10670 10675 10678 10679 10684 10691 10698 10704 10708 10712 10716 10718 10721 10725 10729 10733 10737 10741 10744 10746 10748 10747 10748 10756 10764 10767 10768 10770 10773 10775 10778 10779 10779 10780 10780 10780 10780 10781 10782 10782 10784 10785 10788 10790 10790 10791 10792 10794 10795 10796
10569 10569 10569 10570 10570 10571 10572 10573 10575 10576 10577 10580 10581 10583 10585 10587 10590 10592 10594 10596 10599 10601 10603 10607 10611 10616 10621 10625 10628 10633 10637 10641 10643 10635 10638 10651 10654 10658 10664 10668 10670 10671 10676 10685 10691 10697 10701 10705 10709 10712 10715 10718 10722 10727 10731 10734 10737 10739 10739 10739 10743 10753 10759 10760 10762 10765 10768 10771 10773 10774 10774 10775 10775 10775 10776 10776 10778 10778 10779 10781 10783 10785 10785 10786 10788 10789 10790 10791
10561 10561 10561 10562 10562 10563 10564 10565 10567 10568 10570 10571 10572 10575 10577 10579 10581 10583 10585 10588 10590 10593 10595 10598 10603 10608 10612 10617 10621 10625 10630 10634 10633 10628 10633 10643 10646 10653 10657 10661 10663 10664 10671 10678 10683 10689 10693 10698 10701 10705 10708 10711 10716 10720 10724 10726 10729 10731 10730 10733 10741 10749 10752 10754 10758 10761 10763 10765 10767 10769 10769 10769 10770 10771 10771 10772 10773 10774 10775 10777 10779 10780 10781 10782 10783 10784 10785 10786
10553 10553 10553 10554 10554 10555 10556 10557 10558 10560 10561 10562 10564 10566 10568 10570 10572 10574 10577 10579 10582 10584 10586 10590 10594 10599 10604 10608 10613 10618 10622 10626 10625 10622 10627 10634 10640 10646 10650 10654 10655 10658 10665 10670 10675 10680 10684 10690 10694 10698 10700 10703 10709 10713 10716 10719 10722 10723 10724 10730 10738 10743 10746 10749 10754 10757 10759 10760 10762 10763 10763 10764 10765 10766 10766 10767 10769 10770 10771 10774 10775 10776 10776 10777 10777 10778 10779 10781
10544 10545 10545 10545 10546 10546 10547 10548 10549 10550 10552 10553 10555 10557 10558 10561 10563 10565 10567 10570 10573 10575 10578 10581 10585 10591 10594 10599 10604 10609 10616 10617 10614 10615 10619 10627 10634 10639 10643 10647 10648 10653 10659 10662 10667 10671 10676 10682 10686 10690 10693 10697 10701 10705 10710 10713 10716 10717 10719 10726 10733 10738 10741 10745 10750 10753 10753 10754 10756 10757 10757 10758 10760 10760 10761 10763 10765 10767 10769 10770 10771 10771 10771 10772 10771 10772 10774 10777
10535 10535 10535 10536 10536 10537 10538 10539 10540 10541 10542 10544 10545 10547 10549 10551 10554 10556 10558 10561 10563 10565 10569 10572 10577 10582 10585 10591 10595 10603 10610 10603 10602 10610 10614 10620 10627 10632 10637 10639 10642 10646 10652 10655 10659 10664 10670 10675 10679 10683 10687 10690 10693 10698 10703 10707 10710 10711 10715 10722 10728 10732 10736 10741 10745 10746 10746 10748 10750 10750 10752 10753 10754 10755 10755 10759 10762 10764 10765 10766 10766 10765 10766 10767 10766 10767 10770 10773
10525 10525 10525 10526 10526 10527 10528 10529 10530 10531 10532 10534 10535 10537 10539 10542 10544 10546 10549 10551 10553 10556 10559 10562 10569 10573 10577 10583 10587 10596 10599 10588 10594 10607 10608 10612 10619 10624 10629 10632 10634 10638 10644 10649 10653 10659 10664 10667 10671 10674 10679 10682 10686 10692 10698 10703 10704 10705 10710 10718 10724 10727 10732 10738 10739 10739 10740 10742 10744 10744 10746 10749 10749 10748 10750 10756 10759 10760 10760 10760 10760 10760 10761 10761 10762 10764 10767 10770
10514 10515 10515 10515 10516 10517 10517 10518 10520 10520 10522 10523 10525 10527 10529 10532 10534 10537 10540 10541 10544 10547 10549 10554 10559 10563 10570 10574 10580 10589 10584 10577 10589 10598 10599 10605 10610 10616 10622 10625 10628 10631 10638 10643 10647 10651 10655 10659 10663 10667 10672 10676 10681 10687 10694 10698 10697 10699 10706 10714 10719 10723 10728 10731 10732 10732 10734 10737 10738 10738 10741 10744 10743 10742 10748 10754 10754 10755 10755 10754 10754 10755 10756 10757 10758 10761 10763 10767
10503 10503 10504 10505 10505 10506 10507 10508 10509 10510 10511 10513 10515 10517 10519 10522 10524 10527 10530 10532 10535 10537 10540 10545 10549 10556 10561 10565 10575 10577 10568 10569 10581 10588 10593 10598 10601 10608 10614 10619 10621 10624 10631 10636 10640 10644 10648 10653 10657 10662 10666 10671 10676 10681 10688 10691 10690 10694 10703 10709 10714 10718 10722 10723 10724 10726 10728 10731 10732 10733 10736 10737 10736 10740 10747 10749 10749 10750 10750 10749 10750 10751 10752 10752 10754 10756 10759 10762
10492 10492 10492 10493 10494 10495 10496 10497 10498 10499 10501 10502 10504 10506 10508 10511 10514 10517 10520 10522 10525 10528 10531 10535 10540 10547 10552 10559 10566 10560 10555 10564 10572 10580 10587 10589 10594 10601 10606 10612 10615 10617 10623 10628 10633 10638 10642 10647 10652 10656 10661 10665 10670 10675 10681 10684 10685 10690 10698 10704 10708 10712 10714 10716 10717 10719 10722 10725 10726 10728 10730 10729 10731 10739 10743 10744 10745 10745 10745 10745 10746 10746 10747 10748 10750 10752 10755 10758
10480 10480 10481 10481 10482 10483 10484 10485 10486 10488 10489 10491 10493 10495 10498 10500 10504 10507 10510 10513 10515 10518 10522 10526 10532 10537 10543 10552 10550 10544 10549 10558 10563 10573 10578 10580 10586 10592 10597 10603 10607 10610 10615 10620 10626 10631 10636 10641 10646 10651 10656 10660 10664 10669 10675 10678 10680 10686 10692 10697 10701 10705 10708 10709 10711 10713 10716 10718 10721 10723 10722 10723 10729 10736 10739 10740 10741 10740 10740 10741 10742 10742 10743 10744 10746 10748 10751 10752
10468 10468 10469 10469 10470 10471 10472 10473 10474 10476 10478 10480 10482 10484 10487 10490 10494 10497 10499 10503 10505 10510 10513 10518 10523 10527 10536 10541 10533 10535 10545 10550 10556 10563 10567 10571 10576 10583 10588 10593 10598 10603 10607 10613 10620 10625 10630 10636 10640 10646 10650 10654 10659 10664 10669 10672 10674 10680 10686 10690 10695 10699 10701 10702 10704 10707 10710 10713 10716 10717 10716 10720 10727 10733 10736 10736 10736 10736 10737 10738 10738 10738 10739 10740 10741 10743 10745 10745
10455 10455 10456 10456 10457 10458 10459 10460 10461 10463 10465 10467 10470 10472 10475 10479 10483 10486 10489 10492 10496 10500 10504 10509 10513 10519 10527 10526 10521 10529 10538 10541 10546 10550 10556 10563 10567 10573 10579 10584 10591 10596 10600 10607 10614 10620 10626 10631 10636 10641 10645 10649 10653 10658 10663 10666 10668 10673 10680 10685 10690 10693 10694 10696 10698 10701 10704 10707 10711 10711 10710 10718 10726 10729 10731 10730 10731 10732 10733 10734 10734 10734 10734 10735 10736 10738 10739 10740
10441 10442 10442 10444 10444 10445 10447 10448 10449 10451 10453 10455 10457 10460 10465 10469 10472 10475 10478 10483 10487 10490 10494 10499 10504 10510 10515 10512 10513 10522 10528 10530 10533 10539 10549 10555 10559 10565 10571 10578 10585 10590 10595 10601 10608 10615 10620 10625 10631 10636 10640 10644 10648 10652 10656 10659 10662 10668 10674 10679 10684 10685 10687 10689 10692 10695 10699 10703 10706 10705 10706 10716 10723 10724 10724 10724 10725 10728 10729 10729 10728 10729 10730 10730 10731 10732 10733 10734
10427 10428 10429 10430 10431 10432 10433 10435 10437 10438 10440 10442 10444 10449 10454 10458 10461 10464 10469 10473 10477 10480 10485 10490 10494 10499 10503 10502 10505 10511 10515 10518 10524 10533 10541 10545 10551 10558 10564 10572 10579 10584 10589 10595 10602 10609 10615 10621 10626 10631 10635 10639 10643 10647 10651 10654 10657 10662 10668 10673 10677 10678 10680 10682 10686 10690 10695 10699 10700 10698 10702 10713 10719 10717 10717 10718 10721 10723 10724 10723 10723 10724 10725 10725 10725 10726 10728 10729
10414 10415 10416 10417 10418 10419 10421 10423 10424 10426 10428 10429 10433 10438 10443 10446 10450 10454 10459 10462 10466 10470 10475 10480 10483 10488 10490 10490 10494 10499 10505 10512 10518 10526 10531 10537 10545 10551 10558 10565 10571 10577 10583 10589 10596 10603 10610 10615 10620 10626 10630 10633 10638 10642 10647 10649 10651 10655 10661 10666 10669 10670 10672 10676 10681 10686 10691 10694 10693 10692 10699 10709 10713 10711 10711 10714 10717 10718 10718 10717 10718 10718 10720 10720 10719 10721 10723 10723
10401 10402 10403 10404 10405 10406 10408 10410 10412 10414 10415 10418 10422 10428 10432 10436 10440 10444 10448 10451 10456 10459 10463 10467 10471 10475 10477 10479 10484 10490 10497 10504 10509 10516 10522 10529 10536 10543 10551 10558 10565 10572 10577 10583 10590 10596 10604 10609 10615 10622 10626 10629 10633 10636 10640 10641 10643 10648 10652 10658 10661 10663 10666 10671 10677 10683 10686 10688 10687 10688 10697 10704 10706 10705 10707 10710 10712 10712 10712 10712 10712 10713 10714 10714 10715 10717 10718 10717
10388 10389 10390 10391 10393 10394 10396 10398 10400 10402 10404 10407 10412 10417 10422 10425 10429 10433 10437 10441 10443 10445 10451 10456 10459 10463 10467 10471 10477 10482 10488 10495 10501 10507 10513 10520 10528 10535 10543 10551 10559 10566 10571 10577 10583 10589 10597 10604 10611 10616 10619 10621 10624 10628 10632 10634 10637 10641 10646 10651 10655 10658 10661 10666 10674 10679 10681 10682 10682 10686 10694 10697 10699 10701 10704 10706 10706 10707 10707 10706 10707 10708 10709 10710 10711 10713 10713 10712
10376 10377 10378 10380 10381 10383 10385 10387 10389 10390 10392 10395 10402 10408 10411 10414 10417 10421 10425 10427 10429 10434 10440 10444 10448 10453 10457 10462 10466 10472 10481 10489 10493 10498 10505 10512 10521 10529 10537 10545 10553 10559 10565 10570 10575 10582 10590 10599 10605 10607 10609 10612 10617 10621 10624 10628 10632 10635 10640 10645 10649 10653 10656 10662 10669 10674 10677 10677 10679 10684 10689 10691 10693 10697 10699 10701 10701 10701 10701 10701 10701 10703 10704 10705 10707 10708 10708 10708
10366 10367 10368 10369 10371 10372 10374 10376 10377 10379 10381 10386 10393 10398 10399 10402 10405 10408 10411 10414 10417 10424 10429 10434 10440 10444 10447 10451 10457 10465 10474 10479 10483 10490 10497 10506 10516 10525 10533 10540 10547 10552 10556 10562 10569 10577 10586 10593 10596 10597 10601 10606 10611 10614 10618 10623 10626 10628 10633 10639 10644 10647 10651 10658 10665 10670 10672 10672 10676 10680 10683 10685 10689 10692 10694 10696 10696 10696 10696 10696 10696 10697 10699 10701 10703 10703 10703 10703
10357 10358 10359 10360 10361 10362 10364 10365 10367 10368 10371 10377 10383 10386 10386 10389 10391 10395 10400 10403 10408 10415 10420 10425 10430 10432 10437 10443 10450 10460 10466 10469 10475 10483 10492 10501 10510 10519 10526 10534 10539 10544 10550 10557 10564 10572 10579 10584 10586 10589 10594 10599 10603 10607 10612 10617 10620 10623 10629 10634 10639 10641 10646 10653 10661 10665 10667 10668 10672 10675 10677 10680 10683 10686 10689 10691 10691 10691 10691 10691 10691 10692 10695 10696 10697 10698 10698 10698
10349 10350 10350 10351 10352 10353 10354 10355 10356 10359 10363 10368 10371 10372 10374 10376 10380 10385 10390 10394 10400 10406 10411 10416 10420 10424 10430 10436 10446 10455 10457 10461 10470 10478 10486 10495 10504 10511 10519 10525 10530 10536 10544 10551 10557 10564 10570 10573 10575 10580 10586 10591 10595 10601 10607 10612 10615 10619 10625 10630 10632 10635 10641 10648 10656 10661 10663 10664 10667 10669 10672 10675 10679 10682 10685 10685 10686 10686 10686 10687 10687 10688 10690 10691 10692 10693 10693 10692
10342 10342 10343 10343 10344 10345 10345 10346 10348 10351 10354 10356 10358 10361 10362 10366 10371 10377 10382 10387 10393 10399 10403 10409 10413 10416 10422 10433 10444 10448 10450 10457 10466 10472 10480 10488 10496 10503 10510 10516 10523 10531 10538 10543 10550 10556 10561 10564 10569 10574 10578 10583 10589 10596 10602 10606 10610 10615 10621 10624 10625 10629 10636 10644 10651 10655 10657 10659 10662 10664 10667 10671 10675 10677 10679 10680 10680 10681 10681 10683 10684 10684 10685 10685 10687 10688 10687 10687
10335 10336 10335 10336 10336 10336 10337 10339 10340 10342 10344 10345 10348 10351 10353 10357 10363 10369 10375 10380 10386 10392 10397 10402 10404 10408 10419 10432 10436 10437 10443 10452 10458 10466 10474 10481 10488 10494 10501 10509 10517 10524 10530 10536 10542 10549 10554 10558 10563 10568 10571 10576 10583 10590 10596 10600 10605 10611 10615 10616 10618 10625 10632 10639 10645 10649 10651 10654 10657 10660 10663 10667 10670 10671 10673 10674 10675 10675 10677 10679 10680 10680 10680 10680 10681 10682 10682 10681
10329 10329 10329 10328 10328 10329 10330 10331 10332 10333 10334 10335 10338 10341 10345 10350 10356 10363 10369 10374 10380 10385 10390 10394 10397 10405 10417 10423 10424 10430 10438 10444 10451 10461 10468 10474 10481 10488 10496 10504 10510 10517 10523 10529 10536 10543 10549 10552 10556 10560 10565 10572 10580 10586 10590 10595 10600 10606 10608 10609 10613 10620 10626 10633 10639 10642 10645 10649 10652 10656 10659 10663 10665 10665 10667 10669 10669 10671 10674 10675 10676 10676 10676 10676 10676 10676 10676 10676
10323 10323 10322 10322 10322 10322 10323 10322 10322 10323 10324 10326 10329 10333 10337 10343 10350 10357 10363 10368 10373 10379 10383 10387 10392 10402 10410 10413 10418 10425 10430 10436 10447 10454 10459 10466 10474 10482 10491 10499 10505 10511 10517 10523 10531 10537 10542 10544 10548 10554 10560 10568 10575 10580 10584 10588 10595 10599 10599 10602 10608 10615 10622 10629 10633 10635 10639 10644 10647 10652 10655 10658 10660 10660 10662 10663 10664 10667 10670 10671 10672 10671 10671 10671 10671 10671 10670 10670
10317 10317 10316 10315 10314 10314 10314 10313 10313 10313 10315 10317 10319 10323 10328 10334 10342 10348 10355 10360 10366 10370 10375 10381 10389 10398 10403 10407 10413 10418 10423 10433 10440 10444 10450 10459 10468 10477 10484 10491 10496 10503 10510 10517 10522 10527 10531 10534 10539 10546 10555 10562 10567 10571 10576 10582 10588 10591 10592 10597 10604 10611 10618 10623 10627 10630 10634 10638 10643 10648 10652 10654 10655 10656 10656 10658 10660 10664 10666 10667 10667 10667 10667 10667 10667 10666 10666 10665
10312 10311 10309 10308 10306 10305 10304 10303 10304 10304 10305 10307 10310 10313 10318 10324 10332 10339 10347 10353 10357 10361 10367 10375 10383 10390 10395 10401 10406 10411 10420 10429 10434 10439 10447 10455 10463 10470 10476 10483 10489 10497 10504 10509 10514 10520 10525 10529 10535 10544 10551 10555 10558 10563 10570 10576 10581 10583 10586 10592 10600 10606 10613 10618 10621 10624 10629 10634 10639 10644 10647 10649 10650 10651 10651 10654 10657 10659 10661 10661 10662 10662 10662 10663 10662 10662 10661 10661
10306 10304 10303 10301 10299 10297 10296 10295 10296 10296 10297 10299 10302 10306 10310 10316 10323 10330 10337 10343 10347 10354 10362 10370 10376 10382 10389 10395 10400 10408 10417 10424 10430 10438 10446 10452 10459 10465 10471 10479 10486 10493 10499 10503 10509 10517 10523 10528 10536 10543 10547 10550 10554 10561 10567 10572 10575 10578 10582 10589 10596 10602 10608 10613 10617 10620 10625 10630 10635 10640 10642 10643 10645 10646 10647 10650 10652 10654 10655 10656 10656 10657 10658 10658 10658 10658 10657 10656
10300 10298 10296 10294 10291 10290 10289 10289 10289 10290 10291 10293 10296 10300 10304 10310 10315 10321 10328 10334 10339 10348 10356 10363 10370 10376 10381 10386 10393 10403 10412 10418 10426 10435 10441 10448 10456 10462 10469 10477 10484 10491 10496 10501 10507 10514 10519 10526 10533 10538 10542 10546 10552 10558 10563 10568 10572 10575 10580 10587 10593 10599 10605 10611 10615 10618 10623 10628 10631 10635 10637 10638 10639 10642 10644 10645 10647 10648 10649 10650 10651 10652 10653 10653 10653 10653 10652 10651
10295 10293 10290 10287 10285 10284 10284 10283 10284 10285 10286 10288 10290 10294 10298 10302 10306 10312 10320 10327 10333 10341 10350 10357 10363 10368 10373 10380 10391 10400 10406 10413 10422 10429 10436 10443 10449 10457 10465 10472 10479 10485 10490 10495 10502 10508 10514 10521 10528 10533 10538 10543 10549 10555 10561 10566 10570 10574 10579 10585 10591 10597 10603 10609 10613 10617 10621 10624 10627 10629 10632 10633 10634 10637 10639 10640 10641 10642 10643 10644 10646 10647 10648 10647 10648 10647 10646 10646
10290 10288 10285 10282 10280 10280 10279 10279 10279 10280 10281 10283 10285 10288 10291 10295 10301 10308 10315 10321 10326 10334 10345 10351 10357 10363 10369 10379 10390 10398 10406 10413 10420 10425 10432 10439 10447 10454 10461 10468 10474 10479 10483 10488 10495 10502 10510 10519 10525 10530 10535 10541 10546 10552 10556 10559 10563 10567 10573 10580 10587 10593 10598 10603 10608 10612 10615 10617 10619 10622 10624 10626 10629 10632 10635 10635 10636 10636 10637 10639 10641 10642 10642 10642 10643 10642 10641 10640
10286 10283 10280 10278 10276 10275 10275 10275 10276 10277 10278 10279 10281 10284 10288 10293 10299 10306 10311 10316 10320 10330 10340 10348 10355 10363 10370 10379 10389 10396 10404 10412 10419 10425 10431 10437 10445 10452 10458 10464 10470 10475 10479 10486 10493 10499 10506 10513 10518 10522 10528 10535 10540 10545 10548 10551 10556 10562 10568 10576 10582 10587 10591 10595 10600 10604 10606 10608 10611 10615 10618 10622 10625 10627 10629 10631 10631 10631 10631 10633 10635 10637 10637 10637 10638 10637 10636 10635
10281 10279 10276 10274 10273 10272 10272 10272 10273 10274 10275 10277 10280 10283 10287 10292 10297 10302 10306 10311 10317 10327 10336 10344 10351 10359 10368 10380 10390 10397 10403 10410 10417 10423 10429 10435 10440 10446 10452 10459 10465 10469 10476 10483 10490 10497 10502 10506 10510 10515 10522 10528 10533 10537 10542 10547 10553 10559 10567 10573 10578 10580 10584 10589 10594 10598 10600 10602 10607 10611 10615 10619 10621 10622 10624 10625 10625 10626 10626 10627 10629 10630 10630 10631 10632 10632 10631 10629
10277 10275 10272 10270 10269 10269 10269 10270 10270 10272 10274 10276 10279 10282 10286 10290 10294 10298 10303 10308 10315 10324 10332 10340 10347 10355 10364 10377 10388 10395 10402 10409 10414 10420 10426 10432 10438 10444 10449 10455 10460 10465 10472 10478 10485 10492 10496 10500 10504 10510 10516 10521 10527 10533 10537 10543 10550 10557 10563 10568 10570 10573 10579 10584 10589 10593 10596 10600 10604 10609 10612 10615 10617 10617 10619 10619 10620 10621 10622 10623 10624 10623 10624 10625 10626 10626 10625 10625
10273 10271 10269 10267 10267 10267 10267 10268 10269 10271 10273 10276 10278 10281 10284 10288 10292 10296 10301 10307 10315 10323 10330 10337 10344 10353 10363 10373 10382 10390 10398 10405 10412 10418 10424 10430 10436 10442 10448 10452 10457 10463 10470 10476 10481 10486 10489 10493 10499 10504 10510 10517 10523 10529 10535 10541 10547 10552 10556 10558 10561 10568 10575 10579 10585 10590 10593 10597 10602 10605 10608 10611 10611 10611 10613 10614 10615 10615 10617 10619 10618 10618 10618 10619 10620 10621 10620 10620
10270 10267 10266 10265 10265 10265 10265 10267 10268 10270 10272 10275 10277 10280 10284 10287 10291 10296 10302 10308 10314 10321 10328 10334 10342 10351 10361 10370 10378 10385 10392 10399 10408 10415 10422 10428 10434 10440 10445 10451 10456 10462 10468 10474 10478 10481 10485 10490 10496 10501 10507 10514 10520 10526 10532 10538 10542 10546 10550 10554 10559 10565 10571 10575 10580 10585 10589 10593 10597 10600 10604 10606 10605 10605 10607 10609 10610 10611 10612 10613 10613 10613 10613 10614 10615 10615 10614 10615
10267 10264 10263 10263 10263 10263 10265 10266 10268 10269 10271 10274 10277 10280 10284 10288 10293 10298 10303 10308 10314 10320 10327 10334 10342 10349 10358 10366 10374 10380 10387 10395 10403 10411 10418 10425 10431 10437 10443 10449 10455 10461 10467 10472 10475 10478 10482 10488 10494 10499 10506 10512 10519 10525 10529 10533 10537 10542 10548 10553 10559 10564 10569 10572 10577 10582 10586 10589 10593 10596 10598 10598 10598 10600 10603 10605 10606 10607 10607 10608 10609 10608 10609 10609 10609 10609 10609 10610
10264 10262 10262 10262 10262 10263 10265 10266 10267 10269 10272 10275 10278 10281 10285 10290 10295 10299 10304 10309 10314 10321 10327 10334 10341 10348 10355 10362 10370 10377 10384 10392 10400 10407 10415 10422 10429 10435 10441 10446 10453 10459 10465 10470 10474 10477 10481 10487 10492 10498 10505 10511 10517 10521 10524 10527 10532 10538 10543 10547 10552 10558 10563 10567 10573 10578 10582 10585 10588 10591 10591 10590 10593 10597 10598 10600 10602 10602 10602 10604 10604 10603 10603 10604 10604 10604 10605 10605
10261 10260 10260 10261 10262 10264 10265 10267 10268 10271 10273 10276 10279 10283 10288 10292 10295 10300 10305 10310 10315 10321 10327 10334 10340 10347 10353 10360 10367 10375 10382 10389 10397 10405 10413 10420 10427 10433 10438 10444 10450 10457 10463 10467 10470 10474 10480 10485 10491 10497 10503 10508 10513 10516 10519 10523 10528 10533 10537 10542 10547 10552 10557 10562 10568 10573 10577 10580 10584 10586 10586 10585 10588 10591 10593 10595 10596 10597 10598 10599 10598 10598 10599 10599 10599 10600 10601 10601
10258 10258 10259 10260 10262 10265 10266 10268 10270 10273 10275 10278 10281 10285 10289 10293 10298 10302 10307 10312 10317 10322 10328 10334 10340 10346 10353 10359 10365 10373 10380 10388 10395 10403 10411 10418 10424 10429 10435 10442 10448 10454 10459 10462 10466 10472 10478 10484 10490 10496 10500 10504 10508 10511 10515 10519 10524 10529 10535 10540 10545 10550 10555 10560 10565 10569 10574 10577 10580 10581 10581 10581 10582 10585 10588 10590 10591 10592 10594 10593 10592 10593 10594 10594 10595 10596 10597 10597
10256 10257 10258 10260 10263 10265 10266 10269 10272 10275 10277 10280 10284 10288 10291 10296 10300 10305 10311 10316 10320 10326 10331 10336 10341 10346 10352 10358 10365 10373 10380 10388 10395 10402 10410 10416 10422 10428 10434 10440 10446 10452 10456 10460 10465 10471 10476 10482 10488 10493 10497 10501 10505 10510 10514 10518 10523 10528 10532 10537 10542 10547 10552 10557 10562 10566 10570 10573 10576 10577 10576 10576 10577 10579 10582 10584 10586 10588 10588 10587 10587 10588 10589 10590 10591 10592 10593 10594
10254 10256 10258 10261 10264 10266 10268 10271 10274 10276 10279 10283 10286 10290 10294 10299 10304 10309 10315 10320 10325 10329 10334 10339 10344 10349 10354 10360 10366 10373 10380 10387 10395 10402 10409 10415 10421 10427 10434 10439 10444 10449 10453 10457 10462 10468 10473 10479 10484 10489 10494 10499 10504 10509 10513 10517 10521 10525 10529 10533 10538 10543 10548 10552 10557 10561 10565 10567 10569 10570 10570 10570 10572 10573 10575 10578 10580 10582 10581 10582 10582 10583 10584 10586 10587 10588 10589 10589
10253 10255 10258 10262 10265 10267 10270 10273 10275 10278 10282 10285 10289 10293 10298 10304 10308 10311 10318 10325 10328 10332 10337 10343 10349 10353 10358 10363 10370 10375 10381 10388 10395 10402 10409 10416 10421 10427 10433 10438 10442 10446 10450 10455 10460 10466 10471 10476 10480 10485 10490 10495 10500 10504 10507 10511 10515 10520 10524 10529 10533 10538 10542 10547 10551 10555 10558 10560 10563 10564 10564 10565 10567 10568 10569 10571 10573 10574 10575 10576 10577 10578 10580 10581 10583 10584 10584 10584
10252 10254 10257 10261 10265 10268 10271 10273 10276 10280 10284 10288 10293 10297 10302 10308 10312 10314 10320 10327 10331 10335 10339 10345 10351 10357 10362 10367 10372 10378 10384 10389 10395 10400 10406 10414 10420 10426 10431 10436 10440 10444 10449 10453 10458 10463 10468 10473 10478 10482 10486 10490 10494 10497 10501 10505 10510 10514 10519 10523 10527 10532 10536 10540 10544 10548 10551 10554 10556 10557 10558 10560 10561 10562 10563 10564 10566 10568 10569 10570 10572 10574 10575 10576 10577 10578 10578 10578
10252 10255 10258 10262 10265 10268 10271 10274 10278 10282 10287 10292 10297 10302 10306 10312 10317 10319 10322 10328 10333 10338 10342 10347 10353 10359 10365 10369 10374 10380 10386 10391 10397 10402 10406 10411 10417 10423 10428 10433 10438 10442 10447 10451 10456 10461 10465 10470 10474 10478 10482 10486 10490 10493 10497 10501 10506 10510 10514 10518 10522 10526 10530 10534 10538 10542 10545 10548 10549 10551 10553 10554 10555 10557 10557 10559 10560 10562 10563 10565 10567 10569 10570 10570 10571 10571 10572 10572
10251 10255 10259 10264 10267 10270 10273 10277 10280 10285 10291 10296 10301 10305 10309 10314 10321 10324 10326 10331 10336 10340 10345 10350 10355 10361 10366 10371 10376 10381 10386 10392 10397 10402 10407 10411 10416 10421 10426 10430 10435 10440 10444 10449 10454 10458 10462 10466 10470 10474 10478 10482 10485 10489 10493 10497 10501 10506 10509 10513 10517 10521 10525 10529 10533 10536 10539 10541 10543 10545 10547 10548 10550 10551 10552 10553 10555 10556 10557 10559 10561 10563 10564 10564 10564 10564 10566 10567
10252 10256 10260 10265 10269 10273 10276 10279 10283 10288 10295 10301 10304 10308 10312 10316 10322 10326 10329 10334 10338 10343 10348 10352 10358 10363 10368 10373 10377 10382 10386 10390 10395 10400 10404 10409 10414 10418 10422 10427 10431 10436 10440 10445 10449 10454 10458 10462 10467 10470 10474 10478 10482 10485 10489 10493 10497 10501 10504 10508 10512 10516 10519 10523 10527 10530 10533 10535 10537 10539 10541 10542 10543 10545 10546 10548 10549 10550 10552 10554 10556 10557 10558 10558 10558 10558 10559 10561
10252 10257 10261 10265 10270 10275 10278 10281 10286 10291 10298 10303 10306 10310 10314 10318 10323 10328 10332 10336 10340 10345 10350 10354 10359 10364 10368 10373 10378 10382 10386 10390 10394 10398 10402 10407 10411 10415 10420 10424 10428 10432 10436 10440 10445 10449 10454 10458 10462 10466 10469 10473 10477 10481 10485 10488 10492 10496 10500 10504 10508 10511 10514 10517 10521 10524 10526 10528 10530 10533 10535 10536 10537 10538 10540 10543 10544 10546 10547 10549 10550 10550 10551 10552 10552 10552 10554 10555
10253 10257 10262 10266 10270 10275 10280 10284 10289 10294 10300 10305 10308 10311 10316 10320 10324 10329 10333 10338 10342 10347 10351 10355 10359 10364 10368 10373 10377 10381 10385 10390 10394 10398 10402 10406 10410 10414 10418 10422 10426 10430 10434 10438 10442 10446 10450 10455 10459 10462 10465 10469 10473 10477 10480 10484 10487 10492 10496 10500 10503 10506 10508 10512 10515 10518 10520 10522 10524 10526 10528 10530 10532 10534 10536 10538 10539 10541 10542 10543 10544 10544 10545 10546 10546 10547 10548 10549